SHU1987 UIII-USSS

Flight info

Callsign SHU1987
Flight time 3h 39m
Altitude 32000
Route BOGR5D BOGRA A815 TUTEK M97 BIVNA/K0863F340 M97 LIBZI R497 RO N869 ROTLI A300 ADONI R372 DILOR/K0848F360 R372 NH N992 AKERA T764 REPSA REPS6S
Aircraft T154/M-SDFGIRY/S

Departure

Time 2026-05-05 10:12
Airport Irkutsk International Airport (UIII)

Arrival

Time 2026-05-05 13:51
Airport Koltsovo Airport (USSS)
Time Latitude Longitude Altitude Speed Heading
2026-05-05 08:45 52.27130 104.35988 1683 ft 0 kts 356°
2026-05-05 09:55 52.27135 104.35988 1683 ft 1 kts 356°
2026-05-05 09:55 52.27161 104.35995 1683 ft 5 kts 32°
2026-05-05 09:56 52.27179 104.36063 1683 ft 7 kts 81°
2026-05-05 09:56 52.27185 104.36166 1683 ft 9 kts 85°
2026-05-05 09:56 52.27179 104.36286 1683 ft 11 kts 105°
2026-05-05 09:56 52.27154 104.36411 1683 ft 12 kts 109°
2026-05-05 09:57 52.27124 104.36544 1683 ft 12 kts 110°
2026-05-05 09:57 52.27091 104.36684 1683 ft 13 kts 110°
2026-05-05 09:57 52.27058 104.36830 1683 ft 13 kts 110°
2026-05-05 09:57 52.27025 104.36974 1683 ft 13 kts 109°
2026-05-05 09:58 52.26994 104.37114 1683 ft 12 kts 105°
2026-05-05 09:58 52.27000 104.37253 1683 ft 11 kts 88°
2026-05-05 09:58 52.26977 104.37384 1683 ft 12 kts 114°
2026-05-05 09:58 52.26940 104.37515 1683 ft 13 kts 113°
2026-05-05 09:59 52.26903 104.37657 1683 ft 13 kts 113°
2026-05-05 09:59 52.26863 104.37807 1683 ft 14 kts 113°
2026-05-05 09:59 52.26821 104.37962 1683 ft 15 kts 113°
2026-05-05 09:59 52.26777 104.38130 1683 ft 16 kts 113°
2026-05-05 10:00 52.26731 104.38304 1683 ft 17 kts 113°
2026-05-05 10:00 52.26683 104.38487 1683 ft 17 kts 113°
2026-05-05 10:00 52.26631 104.38679 1683 ft 18 kts 113°
2026-05-05 10:00 52.26580 104.38872 1683 ft 18 kts 113°
2026-05-05 10:01 52.26528 104.39071 1683 ft 19 kts 113°
2026-05-05 10:01 52.26474 104.39272 1683 ft 19 kts 113°
2026-05-05 10:01 52.26421 104.39475 1683 ft 19 kts 113°
2026-05-05 10:01 52.26367 104.39678 1683 ft 19 kts 113°
2026-05-05 10:02 52.26319 104.39859 1683 ft 16 kts 113°
2026-05-05 10:02 52.26272 104.40033 1683 ft 16 kts 113°
2026-05-05 10:02 52.26226 104.40206 1683 ft 16 kts 113°
2026-05-05 10:02 52.26179 104.40381 1683 ft 16 kts 113°
2026-05-05 10:03 52.26133 104.40556 1683 ft 16 kts 113°
2026-05-05 10:03 52.26086 104.40732 1683 ft 16 kts 113°
2026-05-05 10:03 52.26044 104.40886 1683 ft 14 kts 113°
2026-05-05 10:03 52.26004 104.41042 1683 ft 14 kts 109°
2026-05-05 10:04 52.26017 104.41164 1683 ft 8 kts 38°
2026-05-05 10:04 52.26053 104.41196 1683 ft 0 kts 24°
2026-05-05 10:05 52.26057 104.41200 1683 ft 2 kts 24°
2026-05-05 10:05 52.26089 104.41222 1683 ft 7 kts 24°
2026-05-05 10:05 52.26154 104.41271 1683 ft 12 kts 26°
2026-05-05 10:06 52.26196 104.41399 1683 ft 14 kts 101°
2026-05-05 10:06 52.26156 104.41569 1683 ft 16 kts 112°
2026-05-05 10:06 52.26107 104.41705 1683 ft 10 kts 141°
2026-05-05 10:06 52.26052 104.41763 1683 ft 8 kts 125°
2026-05-05 10:07 52.26069 104.41816 1683 ft 5 kts 358°
2026-05-05 10:07 52.26096 104.41782 1683 ft 4 kts 304°
2026-05-05 10:07 52.26109 104.41738 1683 ft 3 kts 294°
2026-05-05 10:07 52.26114 104.41719 1683 ft 0 kts 294°
2026-05-05 10:10 52.26114 104.41718 1683 ft 0 kts 293°
2026-05-05 10:10 52.26116 104.41712 1683 ft 5 kts 293°
2026-05-05 10:10 52.26174 104.41499 1683 ft 44 kts 293°
2026-05-05 10:11 52.26371 104.40761 1684 ft 96 kts 294°
2026-05-05 10:11 52.26693 104.39546 1684 ft 139 kts 295°
2026-05-05 10:11 52.27103 104.37975 1843 ft 157 kts 296°
2026-05-05 10:11 52.27537 104.36307 2148 ft 161 kts 297°
2026-05-05 10:12 52.28005 104.34639 2506 ft 163 kts 298°
2026-05-05 10:12 52.28475 104.32932 2856 ft 165 kts 297°
2026-05-05 10:12 52.28929 104.31235 3230 ft 164 kts 297°
2026-05-05 10:12 52.29524 104.29670 3589 ft 160 kts 319°
2026-05-05 10:13 52.30507 104.28824 3905 ft 161 kts 345°
2026-05-05 10:13 52.31593 104.28426 4268 ft 160 kts 346°
2026-05-05 10:13 52.32704 104.28043 4526 ft 166 kts 346°
2026-05-05 10:13 52.33851 104.27576 4791 ft 170 kts 340°
2026-05-05 10:14 52.34967 104.26904 5047 ft 174 kts 338°
2026-05-05 10:14 52.36137 104.26193 5332 ft 177 kts 337°
2026-05-05 10:14 52.37334 104.25425 5528 ft 192 kts 336°
2026-05-05 10:14 52.38620 104.24595 5780 ft 206 kts 337°
2026-05-05 10:15 52.40044 104.23707 6013 ft 227 kts 338°
2026-05-05 10:15 52.41594 104.22742 6256 ft 248 kts 338°
2026-05-05 10:15 52.43156 104.21756 6590 ft 229 kts 338°
2026-05-05 10:15 52.44707 104.20857 6764 ft 235 kts 340°
2026-05-05 10:16 52.46249 104.20018 7064 ft 237 kts 341°
2026-05-05 10:16 52.47832 104.19167 7421 ft 236 kts 341°
2026-05-05 10:16 52.49414 104.18310 7823 ft 238 kts 340°
2026-05-05 10:16 52.50975 104.17382 8266 ft 240 kts 338°
2026-05-05 10:17 52.52533 104.16330 8703 ft 242 kts 336°
2026-05-05 10:17 52.54089 104.15216 9114 ft 242 kts 336°
2026-05-05 10:17 52.55667 104.14168 9592 ft 243 kts 339°
2026-05-05 10:17 52.57282 104.13209 10139 ft 245 kts 340°
2026-05-05 10:18 52.58890 104.12272 10678 ft 247 kts 340°
2026-05-05 10:18 52.60439 104.11367 11187 ft 250 kts 340°
2026-05-05 10:18 52.62020 104.10476 11699 ft 252 kts 341°
2026-05-05 10:18 52.63701 104.09545 12199 ft 255 kts 341°
2026-05-05 10:19 52.65375 104.08617 12688 ft 256 kts 341°
2026-05-05 10:19 52.67067 104.07676 13175 ft 256 kts 341°
2026-05-05 10:19 52.68767 104.06718 13666 ft 258 kts 340°
2026-05-05 10:19 52.70481 104.05670 14182 ft 262 kts 339°
2026-05-05 10:20 52.72190 104.04614 14699 ft 263 kts 339°
2026-05-05 10:20 52.73937 104.03532 15230 ft 266 kts 339°
2026-05-05 10:20 52.75669 104.02457 15740 ft 268 kts 339°
2026-05-05 10:20 52.77430 104.01371 16239 ft 270 kts 340°
2026-05-05 10:21 52.79204 104.00279 16738 ft 272 kts 340°
2026-05-05 10:21 52.80982 103.99190 17242 ft 274 kts 340°
2026-05-05 10:21 52.82791 103.98086 17760 ft 276 kts 340°
2026-05-05 10:21 52.84625 103.96971 18278 ft 279 kts 340°
2026-05-05 10:22 52.86471 103.95847 18787 ft 281 kts 340°
2026-05-05 10:22 52.88314 103.94724 19296 ft 283 kts 340°
2026-05-05 10:22 52.90168 103.93594 19812 ft 285 kts 340°
2026-05-05 10:22 52.92055 103.92443 20337 ft 287 kts 340°
2026-05-05 10:23 52.93950 103.91286 20855 ft 288 kts 340°
2026-05-05 10:23 52.95837 103.90131 21364 ft 289 kts 340°
2026-05-05 10:23 52.97729 103.88973 21864 ft 290 kts 340°
2026-05-05 10:23 52.99667 103.87786 22308 ft 294 kts 340°
2026-05-05 10:24 53.01611 103.86594 22643 ft 301 kts 340°
2026-05-05 10:24 53.03619 103.85362 22977 ft 308 kts 340°
2026-05-05 10:24 53.05663 103.84106 23308 ft 315 kts 340°
2026-05-05 10:24 53.07738 103.82830 23649 ft 321 kts 340°
2026-05-05 10:25 53.09868 103.81519 23903 ft 330 kts 340°
2026-05-05 10:25 53.12020 103.80198 24101 ft 340 kts 340°
2026-05-05 10:25 53.14314 103.78793 24337 ft 349 kts 340°
2026-05-05 10:25 53.16608 103.77325 24606 ft 356 kts 336°
2026-05-05 10:26 53.18861 103.75562 24926 ft 362 kts 334°
2026-05-05 10:26 53.21172 103.73676 25207 ft 369 kts 334°
2026-05-05 10:26 53.23506 103.71796 25474 ft 376 kts 334°
2026-05-05 10:26 53.25870 103.69920 25742 ft 383 kts 335°
2026-05-05 10:27 53.28330 103.67982 26012 ft 389 kts 335°
2026-05-05 10:27 53.30831 103.66016 26303 ft 395 kts 335°
2026-05-05 10:27 53.33355 103.64032 26531 ft 403 kts 335°
2026-05-05 10:27 53.35889 103.62038 26801 ft 408 kts 335°
2026-05-05 10:28 53.38470 103.60004 27090 ft 413 kts 335°
2026-05-05 10:28 53.41109 103.57924 27333 ft 419 kts 335°
2026-05-05 10:28 53.43764 103.55827 27585 ft 424 kts 335°
2026-05-05 10:28 53.46467 103.53689 27805 ft 430 kts 335°
2026-05-05 10:29 53.49047 103.51106 28169 ft 431 kts 322°
2026-05-05 10:29 53.51175 103.47607 28599 ft 430 kts 308°
2026-05-05 10:29 53.52756 103.43343 29016 ft 429 kts 295°
2026-05-05 10:29 53.53682 103.38596 29417 ft 428 kts 281°
2026-05-05 10:30 53.53990 103.33722 29778 ft 428 kts 273°
2026-05-05 10:30 53.54239 103.28649 29960 ft 434 kts 276°
2026-05-05 10:30 53.54660 103.23608 30196 ft 437 kts 279°
2026-05-05 10:30 53.55212 103.18613 30425 ft 440 kts 281°
2026-05-05 10:31 53.55844 103.13528 30652 ft 444 kts 282°
2026-05-05 10:31 53.56492 103.08548 30878 ft 446 kts 282°
2026-05-05 10:31 53.57173 103.03376 31112 ft 449 kts 282°
2026-05-05 10:31 53.57856 102.98207 31357 ft 451 kts 282°
2026-05-05 10:32 53.58528 102.93092 31611 ft 452 kts 282°
2026-05-05 10:32 53.59204 102.87943 31867 ft 453 kts 282°
2026-05-05 10:32 53.59882 102.82753 32122 ft 454 kts 282°
2026-05-05 10:32 53.60569 102.77475 32184 ft 460 kts 282°
2026-05-05 10:33 53.61946 102.66841 32170 ft 471 kts 282°
2026-05-05 10:33 53.63341 102.55979 32167 ft 476 kts 282°
2026-05-05 10:34 53.64739 102.45014 32162 ft 473 kts 282°
2026-05-05 10:34 53.65425 102.39596 32268 ft 471 kts 282°
2026-05-05 10:34 53.66103 102.34225 32679 ft 465 kts 282°
2026-05-05 10:35 53.66774 102.28880 33054 ft 461 kts 282°
2026-05-05 10:35 53.67432 102.23610 33522 ft 455 kts 282°
2026-05-05 10:35 53.68081 102.18385 33936 ft 451 kts 282°
2026-05-05 10:35 53.68717 102.13245 34221 ft 450 kts 282°
2026-05-05 10:36 53.70018 102.02688 34187 ft 461 kts 282°
2026-05-05 10:36 53.71334 101.91936 34182 ft 469 kts 282°
2026-05-05 10:37 53.72653 101.81067 34187 ft 473 kts 282°
2026-05-05 10:37 53.73963 101.70189 34184 ft 476 kts 282°
2026-05-05 10:38 53.75285 101.59116 34179 ft 475 kts 282°
2026-05-05 10:38 53.76577 101.48206 34188 ft 475 kts 282°
2026-05-05 10:39 53.77867 101.37219 34182 ft 475 kts 282°
2026-05-05 10:39 53.79129 101.26357 34180 ft 462 kts 281°
2026-05-05 10:40 53.80358 101.15698 34187 ft 466 kts 281°
2026-05-05 10:40 53.81605 101.04799 34182 ft 467 kts 281°
2026-05-05 10:41 53.82829 100.94025 34179 ft 465 kts 281°
2026-05-05 10:41 53.84050 100.83179 34184 ft 466 kts 281°
2026-05-05 10:42 53.85660 100.68748 34181 ft 465 kts 281°
2026-05-05 10:43 53.87051 100.56145 34177 ft 466 kts 281°
2026-05-05 10:43 53.88229 100.45360 34218 ft 462 kts 281°
2026-05-05 10:44 53.89393 100.34615 34290 ft 463 kts 280°
2026-05-05 10:44 53.90535 100.23965 34234 ft 464 kts 280°
2026-05-05 10:45 53.91483 100.15050 34184 ft 463 kts 280°
2026-05-05 10:45 53.92617 100.04316 34130 ft 462 kts 280°
2026-05-05 10:46 53.93916 99.91903 34102 ft 462 kts 280°
2026-05-05 10:46 53.95023 99.81218 34105 ft 462 kts 280°
2026-05-05 10:47 53.96126 99.70471 34138 ft 463 kts 280°
2026-05-05 10:47 53.97220 99.59718 34198 ft 463 kts 280°
2026-05-05 10:48 53.98313 99.48863 34292 ft 464 kts 280°
2026-05-05 10:48 53.99390 99.38079 34405 ft 464 kts 280°
2026-05-05 10:49 54.00456 99.27282 34413 ft 467 kts 279°
2026-05-05 10:49 54.01518 99.16414 34365 ft 464 kts 279°
2026-05-05 10:50 54.02565 99.05612 34309 ft 464 kts 279°
2026-05-05 10:50 54.03612 98.94707 34286 ft 464 kts 279°
2026-05-05 10:51 54.04667 98.83958 34300 ft 462 kts 283°
2026-05-05 10:51 54.05729 98.78763 34480 ft 460 kts 296°
2026-05-05 10:51 54.07338 98.74168 34665 ft 459 kts 304°
2026-05-05 10:52 54.10868 98.65102 34622 ft 468 kts 302°
2026-05-05 10:52 54.12589 98.60301 34442 ft 469 kts 301°
2026-05-05 10:52 54.14215 98.55582 34285 ft 465 kts 300°
2026-05-05 10:52 54.15829 98.50799 34097 ft 462 kts 300°
2026-05-05 10:53 54.17425 98.46017 34024 ft 457 kts 300°
2026-05-05 10:53 54.18988 98.41310 34135 ft 457 kts 300°
2026-05-05 10:53 54.20567 98.36541 34192 ft 461 kts 300°
2026-05-05 10:54 54.23718 98.26975 34178 ft 465 kts 299°
2026-05-05 10:54 54.26881 98.17336 34173 ft 462 kts 299°
2026-05-05 10:55 54.30032 98.07710 34173 ft 463 kts 299°
2026-05-05 10:55 54.33155 97.98134 34173 ft 463 kts 299°
2026-05-05 10:56 54.36288 97.88516 34173 ft 463 kts 299°
2026-05-05 10:56 54.39439 97.78849 34176 ft 463 kts 299°
2026-05-05 10:57 54.42596 97.69115 34167 ft 463 kts 299°
2026-05-05 10:57 54.45725 97.59428 34177 ft 463 kts 299°
2026-05-05 10:58 54.48826 97.49786 34176 ft 463 kts 299°
2026-05-05 10:58 54.51939 97.40070 34172 ft 463 kts 299°
2026-05-05 10:59 54.55036 97.30356 34163 ft 463 kts 298°
2026-05-05 10:59 54.58136 97.20573 34175 ft 463 kts 298°
2026-05-05 11:00 54.61221 97.10818 34175 ft 463 kts 298°
2026-05-05 11:00 54.64297 97.01060 34176 ft 463 kts 298°
2026-05-05 11:01 54.67367 96.91283 34097 ft 463 kts 298°
2026-05-05 11:01 54.70439 96.81458 34052 ft 463 kts 298°
2026-05-05 11:02 54.73485 96.71676 34055 ft 464 kts 298°
2026-05-05 11:02 54.76519 96.61813 34060 ft 463 kts 297°
2026-05-05 11:03 54.79444 96.51917 34056 ft 463 kts 297°
2026-05-05 11:03 54.82388 96.41943 34051 ft 464 kts 297°
2026-05-05 11:04 54.85306 96.32042 34038 ft 463 kts 297°
2026-05-05 11:04 54.88242 96.22012 34052 ft 464 kts 297°
2026-05-05 11:05 54.91149 96.12064 34050 ft 464 kts 297°
2026-05-05 11:05 54.94055 96.02084 34055 ft 463 kts 297°
2026-05-05 11:06 54.96979 95.92004 34053 ft 464 kts 297°
2026-05-05 11:06 54.99873 95.81979 34052 ft 464 kts 297°
2026-05-05 11:07 55.02744 95.71995 34054 ft 464 kts 297°
2026-05-05 11:07 55.05615 95.61963 34049 ft 464 kts 297°
2026-05-05 11:08 55.08478 95.51920 34055 ft 464 kts 297°
2026-05-05 11:08 55.11330 95.41905 34049 ft 463 kts 297°
2026-05-05 11:09 55.14169 95.31951 34040 ft 464 kts 296°
2026-05-05 11:09 55.17011 95.21848 34050 ft 464 kts 296°
2026-05-05 11:10 55.19847 95.11717 34055 ft 464 kts 296°
2026-05-05 11:10 55.22670 95.01595 34055 ft 463 kts 296°
2026-05-05 11:11 55.25489 94.91446 34055 ft 464 kts 296°
2026-05-05 11:11 55.28234 94.81264 34068 ft 464 kts 294°
2026-05-05 11:12 55.30833 94.70961 34049 ft 463 kts 294°
2026-05-05 11:12 55.33443 94.60661 34058 ft 464 kts 294°
2026-05-05 11:13 55.36059 94.50340 34056 ft 463 kts 294°
2026-05-05 11:13 55.38673 94.39986 34054 ft 463 kts 294°
2026-05-05 11:14 55.40803 94.31510 34041 ft 463 kts 293°
2026-05-05 11:14 55.42487 94.24770 34058 ft 463 kts 293°
2026-05-05 11:15 55.45786 94.11532 34051 ft 464 kts 294°
2026-05-05 11:16 55.50563 93.92227 34058 ft 464 kts 294°
2026-05-05 11:17 55.53126 93.81802 34054 ft 463 kts 294°
2026-05-05 11:17 55.55680 93.71371 34054 ft 464 kts 294°
2026-05-05 11:18 55.58225 93.60918 34056 ft 463 kts 294°
2026-05-05 11:18 55.60755 93.50480 34051 ft 464 kts 294°
2026-05-05 11:19 55.63225 93.40245 34054 ft 463 kts 294°
2026-05-05 11:19 55.65730 93.29799 34048 ft 464 kts 292°
2026-05-05 11:20 55.68234 93.19299 34056 ft 463 kts 292°
2026-05-05 11:20 55.70739 93.08757 34054 ft 463 kts 292°
2026-05-05 11:21 55.73237 92.98200 34052 ft 464 kts 292°
2026-05-05 11:21 55.75717 92.87666 34054 ft 463 kts 292°
2026-05-05 11:22 55.78194 92.77096 34050 ft 464 kts 292°
2026-05-05 11:22 55.80665 92.66496 34056 ft 463 kts 292°
2026-05-05 11:23 55.83122 92.55910 34054 ft 463 kts 292°
2026-05-05 11:23 55.85581 92.45316 34053 ft 464 kts 293°
2026-05-05 11:24 55.88092 92.34683 34050 ft 464 kts 292°
2026-05-05 11:24 55.90556 92.24152 34057 ft 464 kts 292°
2026-05-05 11:25 55.93025 92.13545 34056 ft 463 kts 292°
2026-05-05 11:25 55.95502 92.02856 34057 ft 464 kts 292°
2026-05-05 11:26 55.97963 91.92188 34058 ft 463 kts 292°
2026-05-05 11:26 56.00405 91.81548 34050 ft 464 kts 292°
2026-05-05 11:27 56.02851 91.70839 34056 ft 464 kts 292°
2026-05-05 11:27 56.05279 91.60152 34053 ft 463 kts 292°
2026-05-05 11:28 56.07708 91.49407 34055 ft 463 kts 292°
2026-05-05 11:28 56.10089 91.38818 34049 ft 463 kts 292°
2026-05-05 11:29 56.12518 91.28074 34061 ft 463 kts 291°
2026-05-05 11:29 56.14926 91.17295 34055 ft 464 kts 291°
2026-05-05 11:30 56.17306 91.06559 34053 ft 463 kts 291°
2026-05-05 11:30 56.19691 90.95731 34051 ft 464 kts 291°
2026-05-05 11:31 56.22057 90.84940 34049 ft 463 kts 291°
2026-05-05 11:31 56.24406 90.74165 34056 ft 464 kts 291°
2026-05-05 11:32 56.26751 90.63355 34055 ft 464 kts 291°
2026-05-05 11:32 56.27688 90.57757 34131 ft 462 kts 280°
2026-05-05 11:32 56.27987 90.52051 34107 ft 465 kts 272°
2026-05-05 11:33 56.28155 90.40374 34061 ft 462 kts 273°
2026-05-05 11:33 56.28497 90.28837 34054 ft 464 kts 273°
2026-05-05 11:34 56.28913 90.17166 34052 ft 463 kts 274°
2026-05-05 11:34 56.29327 90.05622 34054 ft 464 kts 274°
2026-05-05 11:35 56.29737 89.93941 34052 ft 464 kts 274°
2026-05-05 11:35 56.30130 89.82407 34052 ft 464 kts 274°
2026-05-05 11:36 56.30518 89.70733 34052 ft 464 kts 274°
2026-05-05 11:36 56.30891 89.59135 34051 ft 463 kts 274°
2026-05-05 11:37 56.31253 89.47566 34050 ft 464 kts 274°
2026-05-05 11:37 56.31607 89.35881 34046 ft 464 kts 274°
2026-05-05 11:38 56.31945 89.24345 34056 ft 463 kts 272°
2026-05-05 11:38 56.32277 89.12670 34050 ft 463 kts 272°
2026-05-05 11:39 56.32597 89.01054 34051 ft 464 kts 272°
2026-05-05 11:39 56.32932 88.89458 34066 ft 463 kts 276°
2026-05-05 11:39 56.33616 88.83771 34128 ft 463 kts 289°
2026-05-05 11:40 56.34862 88.78416 34085 ft 466 kts 295°
2026-05-05 11:40 56.37481 88.67756 34090 ft 462 kts 292°
2026-05-05 11:41 56.39869 88.56901 34081 ft 463 kts 291°
2026-05-05 11:41 56.42172 88.45996 33994 ft 463 kts 291°
2026-05-05 11:42 56.44441 88.35143 33968 ft 463 kts 291°
2026-05-05 11:42 56.46690 88.24294 33966 ft 463 kts 290°
2026-05-05 11:43 56.48950 88.13350 33962 ft 463 kts 290°
2026-05-05 11:43 56.51197 88.02420 33966 ft 463 kts 290°
2026-05-05 11:44 56.53439 87.91457 33967 ft 463 kts 290°
2026-05-05 11:44 56.55672 87.80478 33966 ft 463 kts 290°
2026-05-05 11:45 56.57879 87.69564 33967 ft 463 kts 290°
2026-05-05 11:45 56.60090 87.58575 33964 ft 463 kts 290°
2026-05-05 11:46 56.62308 87.47488 33965 ft 463 kts 290°
2026-05-05 11:46 56.64495 87.36492 33965 ft 463 kts 290°
2026-05-05 11:47 56.66637 87.25642 33968 ft 463 kts 289°
2026-05-05 11:47 56.68802 87.14618 33963 ft 463 kts 289°
2026-05-05 11:48 56.72039 86.98043 33964 ft 463 kts 289°
2026-05-05 11:48 56.74176 86.87024 33964 ft 463 kts 289°
2026-05-05 11:49 56.76299 86.76015 33962 ft 463 kts 289°
2026-05-05 11:49 56.78435 86.64870 33965 ft 463 kts 289°
2026-05-05 11:50 56.80547 86.53795 33964 ft 463 kts 289°
2026-05-05 11:50 56.82642 86.42739 33961 ft 463 kts 289°
2026-05-05 11:51 56.84741 86.31596 33947 ft 463 kts 289°
2026-05-05 11:51 56.86811 86.20517 33963 ft 463 kts 289°
2026-05-05 11:52 56.88885 86.09370 33962 ft 463 kts 289°
2026-05-05 11:52 56.90955 85.98189 33966 ft 463 kts 289°
2026-05-05 11:53 56.93021 85.86966 33963 ft 463 kts 289°
2026-05-05 11:53 56.95058 85.75841 33965 ft 463 kts 289°
2026-05-05 11:54 56.97092 85.64657 33962 ft 463 kts 289°
2026-05-05 11:54 56.99114 85.53475 33964 ft 463 kts 289°
2026-05-05 11:55 57.01125 85.42284 33965 ft 463 kts 289°
2026-05-05 11:55 57.03077 85.31355 33948 ft 463 kts 288°
2026-05-05 11:56 57.05069 85.20110 33963 ft 464 kts 288°
2026-05-05 11:56 57.07046 85.08900 33968 ft 463 kts 288°
2026-05-05 11:57 57.09034 84.97572 33965 ft 463 kts 288°
2026-05-05 11:57 57.10992 84.86404 33957 ft 463 kts 288°
2026-05-05 11:58 57.12965 84.75165 33962 ft 463 kts 288°
2026-05-05 11:58 57.14719 84.63738 33970 ft 464 kts 284°
2026-05-05 11:59 57.16254 84.52214 33953 ft 463 kts 284°
2026-05-05 11:59 57.17827 84.40691 33962 ft 463 kts 284°
2026-05-05 12:00 57.19415 84.29088 33951 ft 463 kts 284°
2026-05-05 12:00 57.20982 84.17554 33959 ft 463 kts 284°
2026-05-05 12:01 57.22538 84.06036 33959 ft 463 kts 284°
2026-05-05 12:01 57.24088 83.94481 33961 ft 463 kts 284°
2026-05-05 12:02 57.25614 83.83012 33967 ft 463 kts 284°
2026-05-05 12:02 57.27148 83.71399 33966 ft 463 kts 284°
2026-05-05 12:03 57.28665 83.59828 33966 ft 463 kts 284°
2026-05-05 12:03 57.30179 83.48180 33961 ft 463 kts 284°
2026-05-05 12:04 57.31669 83.36630 33962 ft 463 kts 284°
2026-05-05 12:04 57.33154 83.24999 33964 ft 463 kts 283°
2026-05-05 12:05 57.34627 83.13374 33956 ft 463 kts 283°
2026-05-05 12:05 57.36091 83.01752 33962 ft 463 kts 283°
2026-05-05 12:06 57.37551 82.90061 33965 ft 463 kts 283°
2026-05-05 12:06 57.38995 82.78404 33965 ft 463 kts 283°
2026-05-05 12:07 57.40431 82.66711 33965 ft 463 kts 283°
2026-05-05 12:07 57.41852 82.55048 33968 ft 463 kts 283°
2026-05-05 12:08 57.43267 82.43336 33963 ft 463 kts 283°
2026-05-05 12:08 57.44664 82.31670 33946 ft 463 kts 282°
2026-05-05 12:09 57.46047 82.20000 33960 ft 464 kts 282°
2026-05-05 12:09 57.47428 82.08263 33962 ft 463 kts 282°
2026-05-05 12:10 57.48793 81.96566 33965 ft 463 kts 282°
2026-05-05 12:10 57.50147 81.84868 33966 ft 463 kts 282°
2026-05-05 12:11 57.51498 81.73093 33961 ft 463 kts 282°
2026-05-05 12:11 57.52831 81.61369 33960 ft 463 kts 282°
2026-05-05 12:12 57.54157 81.49599 33958 ft 463 kts 282°
2026-05-05 12:12 57.55473 81.37818 33963 ft 463 kts 282°
2026-05-05 12:13 57.56771 81.26073 33969 ft 463 kts 281°
2026-05-05 12:13 57.58062 81.14276 33968 ft 463 kts 281°
2026-05-05 12:14 57.59333 81.02573 33964 ft 463 kts 281°
2026-05-05 12:14 57.60611 80.90701 33963 ft 463 kts 281°
2026-05-05 12:15 57.61868 80.78924 33961 ft 463 kts 281°
2026-05-05 12:15 57.63116 80.67107 33965 ft 463 kts 281°
2026-05-05 12:16 57.64356 80.55253 33965 ft 463 kts 281°
2026-05-05 12:16 57.65580 80.43481 33964 ft 463 kts 281°
2026-05-05 12:17 57.66805 80.31682 33953 ft 464 kts 281°
2026-05-05 12:17 57.68018 80.19847 33964 ft 463 kts 281°
2026-05-05 12:18 57.69214 80.08064 33965 ft 463 kts 281°
2026-05-05 12:18 57.70409 79.96195 33967 ft 463 kts 281°
2026-05-05 12:19 57.71595 79.84287 33965 ft 463 kts 281°
2026-05-05 12:19 57.72763 79.72456 33961 ft 463 kts 281°
2026-05-05 12:20 57.73758 79.60613 33961 ft 464 kts 278°
2026-05-05 12:20 57.74628 79.48630 33961 ft 463 kts 278°
2026-05-05 12:21 57.75520 79.36610 33963 ft 463 kts 278°
2026-05-05 12:21 57.76403 79.24661 33967 ft 463 kts 277°
2026-05-05 12:22 57.77281 79.12663 33963 ft 463 kts 277°
2026-05-05 12:22 57.78143 79.00730 33964 ft 463 kts 277°
2026-05-05 12:23 57.78993 78.88805 34208 ft 461 kts 277°
2026-05-05 12:23 57.79411 78.82893 34558 ft 459 kts 277°
2026-05-05 12:23 57.79825 78.76981 34935 ft 456 kts 277°
2026-05-05 12:24 57.80239 78.71027 35292 ft 454 kts 277°
2026-05-05 12:24 57.80644 78.65190 35631 ft 452 kts 277°
2026-05-05 12:24 57.81045 78.59341 35954 ft 451 kts 277°
2026-05-05 12:24 57.81443 78.53497 35975 ft 457 kts 277°
2026-05-05 12:25 57.82246 78.41606 35972 ft 467 kts 277°
2026-05-05 12:25 57.83051 78.29486 35964 ft 472 kts 277°
2026-05-05 12:26 57.83857 78.17155 35978 ft 475 kts 277°
2026-05-05 12:26 57.84650 78.04842 35979 ft 477 kts 277°
2026-05-05 12:27 57.85438 77.92430 35976 ft 477 kts 277°
2026-05-05 12:27 57.86208 77.80106 35974 ft 477 kts 277°
2026-05-05 12:28 57.86970 77.67728 35976 ft 477 kts 277°
2026-05-05 12:28 57.87712 77.55467 35949 ft 478 kts 277°
2026-05-05 12:29 57.88451 77.43038 35864 ft 479 kts 277°
2026-05-05 12:29 57.89172 77.30720 35840 ft 478 kts 276°
2026-05-05 12:30 57.89886 77.18269 35855 ft 477 kts 276°
2026-05-05 12:30 57.90586 77.05861 35857 ft 478 kts 276°
2026-05-05 12:31 57.91277 76.93419 35854 ft 478 kts 276°
2026-05-05 12:31 57.91958 76.80936 35855 ft 478 kts 276°
2026-05-05 12:32 57.92627 76.68443 35855 ft 478 kts 276°
2026-05-05 12:32 57.93277 76.56067 35857 ft 478 kts 276°
2026-05-05 12:33 57.93919 76.43602 35859 ft 478 kts 276°
2026-05-05 12:33 57.94549 76.31122 35839 ft 478 kts 275°
2026-05-05 12:34 57.95164 76.18679 35855 ft 479 kts 275°
2026-05-05 12:34 57.95770 76.06197 35855 ft 478 kts 275°
2026-05-05 12:35 57.96362 75.93739 35857 ft 478 kts 275°
2026-05-05 12:35 57.96941 75.81290 35861 ft 478 kts 275°
2026-05-05 12:36 57.97554 75.68764 35861 ft 478 kts 276°
2026-05-05 12:36 57.98196 75.56297 35850 ft 478 kts 276°
2026-05-05 12:37 57.98817 75.43777 35854 ft 478 kts 276°
2026-05-05 12:37 57.99422 75.31274 35841 ft 478 kts 275°
2026-05-05 12:38 58.00009 75.18846 35854 ft 478 kts 275°
2026-05-05 12:38 58.00589 75.06338 35854 ft 478 kts 275°
2026-05-05 12:39 58.01157 74.93804 35856 ft 478 kts 275°
2026-05-05 12:39 58.01710 74.81336 35859 ft 478 kts 275°
2026-05-05 12:40 58.02254 74.68807 35859 ft 478 kts 275°
2026-05-05 12:40 58.02774 74.56484 35845 ft 459 kts 275°
2026-05-05 12:41 58.03227 74.44453 35866 ft 463 kts 274°
2026-05-05 12:41 58.03611 74.32220 35842 ft 465 kts 272°
2026-05-05 12:42 58.03913 74.20096 35854 ft 464 kts 272°
2026-05-05 12:42 58.04136 74.07913 35850 ft 464 kts 271°
2026-05-05 12:43 58.04278 73.95718 35855 ft 464 kts 271°
2026-05-05 12:43 58.04340 73.83545 35861 ft 464 kts 270°
2026-05-05 12:44 58.04322 73.71365 35859 ft 464 kts 270°
2026-05-05 12:44 58.04224 73.59180 35858 ft 464 kts 269°
2026-05-05 12:45 58.04046 73.46987 35861 ft 464 kts 268°
2026-05-05 12:45 58.03788 73.34846 35896 ft 463 kts 267°
2026-05-05 12:46 58.03451 73.22724 35915 ft 465 kts 266°
2026-05-05 12:46 58.03034 73.10500 35911 ft 464 kts 266°
2026-05-05 12:47 58.02541 72.98347 35917 ft 472 kts 265°
2026-05-05 12:47 58.01954 72.85847 35914 ft 475 kts 264°
2026-05-05 12:48 58.01128 72.73595 35930 ft 474 kts 261°
2026-05-05 12:48 58.00233 72.61263 35990 ft 472 kts 271°
2026-05-05 12:49 58.01095 72.48958 35900 ft 476 kts 279°
2026-05-05 12:49 58.01977 72.36612 35910 ft 474 kts 277°
2026-05-05 12:50 58.02643 72.24303 35917 ft 474 kts 275°
2026-05-05 12:50 58.03262 72.11860 35920 ft 474 kts 275°
2026-05-05 12:51 58.03862 71.99459 35911 ft 474 kts 275°
2026-05-05 12:51 58.04450 71.87066 35888 ft 473 kts 275°
2026-05-05 12:52 58.05023 71.74731 35890 ft 474 kts 275°
2026-05-05 12:52 58.05588 71.62304 35891 ft 474 kts 275°
2026-05-05 12:53 58.06140 71.49883 35884 ft 474 kts 275°
2026-05-05 12:53 58.06681 71.37443 35883 ft 474 kts 275°
2026-05-05 12:54 58.07463 71.18923 35879 ft 474 kts 274°
2026-05-05 12:55 58.07972 71.06496 35885 ft 474 kts 274°
2026-05-05 12:55 58.08471 70.94037 35885 ft 474 kts 274°
2026-05-05 12:56 58.08955 70.81637 35890 ft 474 kts 274°
2026-05-05 12:56 58.09431 70.69139 35887 ft 474 kts 274°
2026-05-05 12:57 58.09889 70.56793 35893 ft 474 kts 274°
2026-05-05 12:57 58.10358 70.44347 35889 ft 474 kts 275°
2026-05-05 12:58 58.10816 70.31904 35875 ft 474 kts 274°
2026-05-05 12:58 58.11242 70.19511 35886 ft 474 kts 273°
2026-05-05 12:59 58.11654 70.07114 35885 ft 474 kts 273°
2026-05-05 12:59 58.12055 69.94652 35886 ft 474 kts 273°
2026-05-05 13:00 58.12636 69.75885 35887 ft 474 kts 273°
2026-05-05 13:01 58.13363 69.51036 35885 ft 474 kts 273°
2026-05-05 13:01 58.13709 69.38569 35882 ft 474 kts 273°
2026-05-05 13:02 58.14043 69.26093 35893 ft 474 kts 272°
2026-05-05 13:02 58.14364 69.13621 35885 ft 474 kts 272°
2026-05-05 13:03 58.14537 69.01182 35901 ft 474 kts 269°
2026-05-05 13:03 58.14477 68.88696 35887 ft 474 kts 270°
2026-05-05 13:04 58.14439 68.76234 35890 ft 474 kts 270°
2026-05-05 13:04 58.14404 68.63719 35892 ft 474 kts 270°
2026-05-05 13:05 58.14359 68.51186 35886 ft 474 kts 270°
2026-05-05 13:05 58.14302 68.38740 35882 ft 474 kts 270°
2026-05-05 13:06 58.14231 68.26212 35888 ft 473 kts 268°
2026-05-05 13:06 58.13524 68.13707 35877 ft 476 kts 262°
2026-05-05 13:07 58.12677 68.01347 35874 ft 473 kts 263°
2026-05-05 13:07 58.11883 67.88900 35876 ft 474 kts 263°
2026-05-05 13:08 58.11102 67.76549 35881 ft 473 kts 263°
2026-05-05 13:08 58.10303 67.64089 35886 ft 474 kts 263°
2026-05-05 13:09 58.09503 67.51807 35885 ft 474 kts 263°
2026-05-05 13:09 58.08681 67.39406 35889 ft 474 kts 263°
2026-05-05 13:10 58.07891 67.27651 35888 ft 473 kts 262°
2026-05-05 13:10 58.07043 67.15210 35888 ft 475 kts 262°
2026-05-05 13:11 58.06193 67.02927 35885 ft 474 kts 262°
2026-05-05 13:11 58.05323 66.90541 35892 ft 474 kts 262°
2026-05-05 13:12 58.04456 66.78220 35884 ft 474 kts 263°
2026-05-05 13:12 58.03589 66.65799 35891 ft 474 kts 263°
2026-05-05 13:13 58.02717 66.53535 35888 ft 474 kts 263°
2026-05-05 13:13 58.02161 66.41143 35953 ft 472 kts 275°
2026-05-05 13:14 58.02622 66.28806 35949 ft 474 kts 265°
2026-05-05 13:14 58.01608 66.16450 35883 ft 475 kts 261°
2026-05-05 13:15 58.00725 66.04127 35894 ft 473 kts 264°
2026-05-05 13:15 58.00210 65.91731 35906 ft 474 kts 263°
2026-05-05 13:16 57.99487 65.85738 35958 ft 474 kts 251°
2026-05-05 13:16 57.98288 65.79898 35891 ft 477 kts 249°
2026-05-05 13:16 57.96473 65.68008 35896 ft 474 kts 258°
2026-05-05 13:17 57.95409 65.55744 35887 ft 474 kts 262°
2026-05-05 13:17 57.94425 65.43504 35891 ft 474 kts 262°
2026-05-05 13:18 57.93405 65.31293 35870 ft 474 kts 261°
2026-05-05 13:18 57.92370 65.19098 35881 ft 468 kts 261°
2026-05-05 13:19 57.91346 65.07214 35886 ft 457 kts 261°
2026-05-05 13:19 57.90301 64.95231 35696 ft 468 kts 261°
2026-05-05 13:20 57.89776 64.89291 35237 ft 465 kts 260°
2026-05-05 13:20 57.89230 64.83305 34735 ft 459 kts 260°
2026-05-05 13:20 57.88693 64.77419 34254 ft 453 kts 260°
2026-05-05 13:20 57.88170 64.71645 33800 ft 447 kts 261°
2026-05-05 13:21 57.87647 64.65874 33324 ft 443 kts 261°
2026-05-05 13:21 57.87137 64.60239 32855 ft 440 kts 261°
2026-05-05 13:21 57.86619 64.54542 32387 ft 437 kts 261°
2026-05-05 13:21 57.86109 64.48967 31931 ft 434 kts 261°
2026-05-05 13:22 57.85597 64.43378 31478 ft 431 kts 261°
2026-05-05 13:22 57.85095 64.37941 31038 ft 428 kts 261°
2026-05-05 13:22 57.84587 64.32456 30578 ft 425 kts 260°
2026-05-05 13:22 57.84081 64.27010 30062 ft 423 kts 260°
2026-05-05 13:23 57.83575 64.21590 29551 ft 420 kts 260°
2026-05-05 13:23 57.83067 64.16173 29041 ft 416 kts 260°
2026-05-05 13:23 57.82575 64.10852 28550 ft 412 kts 261°
2026-05-05 13:23 57.82186 64.05582 28114 ft 408 kts 262°
2026-05-05 13:24 57.81823 64.00280 27634 ft 406 kts 262°
2026-05-05 13:24 57.81456 63.95056 27157 ft 403 kts 262°
2026-05-05 13:24 57.81081 63.89860 26684 ft 399 kts 262°
2026-05-05 13:24 57.80698 63.84684 26210 ft 396 kts 262°
2026-05-05 13:25 57.80318 63.79601 25745 ft 394 kts 262°
2026-05-05 13:25 57.79933 63.74491 25282 ft 391 kts 262°
2026-05-05 13:25 57.79556 63.69508 24835 ft 388 kts 262°
2026-05-05 13:25 57.79173 63.64495 24388 ft 385 kts 262°
2026-05-05 13:26 57.78793 63.59534 23950 ft 383 kts 262°
2026-05-05 13:26 57.78414 63.54625 23518 ft 380 kts 262°
2026-05-05 13:26 57.78030 63.49671 23087 ft 378 kts 262°
2026-05-05 13:26 57.77651 63.44803 22667 ft 375 kts 262°
2026-05-05 13:27 57.77276 63.40012 22257 ft 373 kts 262°
2026-05-05 13:27 57.76895 63.35177 21846 ft 371 kts 262°
2026-05-05 13:27 57.76519 63.30407 21391 ft 369 kts 261°
2026-05-05 13:27 57.76140 63.25624 20921 ft 366 kts 261°
2026-05-05 13:28 57.75767 63.20938 20454 ft 362 kts 261°
2026-05-05 13:28 57.75390 63.16243 19987 ft 360 kts 261°
2026-05-05 13:28 57.75020 63.11644 19534 ft 358 kts 261°
2026-05-05 13:28 57.74643 63.06989 19079 ft 355 kts 261°
2026-05-05 13:29 57.74270 63.02417 18633 ft 353 kts 261°
2026-05-05 13:29 57.73899 62.97879 18190 ft 351 kts 261°
2026-05-05 13:29 57.73531 62.93400 17757 ft 351 kts 261°
2026-05-05 13:29 57.73158 62.88875 17330 ft 349 kts 261°
2026-05-05 13:30 57.72784 62.84359 16908 ft 346 kts 261°
2026-05-05 13:30 57.72416 62.79940 16445 ft 345 kts 261°
2026-05-05 13:30 57.71981 62.75531 16136 ft 339 kts 253°
2026-05-05 13:30 57.70982 62.71506 15954 ft 342 kts 236°
2026-05-05 13:31 57.69408 62.68124 15761 ft 342 kts 225°
2026-05-05 13:31 57.67713 62.65045 15323 ft 342 kts 225°
2026-05-05 13:31 57.66040 62.61852 14850 ft 337 kts 227°
2026-05-05 13:31 57.64468 62.58661 14380 ft 334 kts 228°
2026-05-05 13:32 57.62929 62.55425 13899 ft 331 kts 229°
2026-05-05 13:32 57.61409 62.52173 13421 ft 329 kts 229°
2026-05-05 13:32 57.59917 62.48966 12948 ft 327 kts 229°
2026-05-05 13:32 57.58406 62.45712 12469 ft 325 kts 229°
2026-05-05 13:33 57.56942 62.42564 12006 ft 322 kts 229°
2026-05-05 13:33 57.55474 62.39412 11557 ft 320 kts 229°
2026-05-05 13:33 57.54006 62.36261 11111 ft 318 kts 230°
2026-05-05 13:33 57.52615 62.33273 10670 ft 317 kts 229°
2026-05-05 13:34 57.51342 62.30535 10234 ft 315 kts 229°
2026-05-05 13:34 57.49375 62.26317 9562 ft 311 kts 229°
2026-05-05 13:34 57.47835 62.23025 9058 ft 308 kts 229°
2026-05-05 13:35 57.46428 62.20023 8667 ft 307 kts 229°
2026-05-05 13:35 57.45029 62.17039 8300 ft 306 kts 229°
2026-05-05 13:35 57.43617 62.14031 7941 ft 304 kts 229°
2026-05-05 13:35 57.42240 62.11103 7574 ft 295 kts 229°
2026-05-05 13:36 57.40913 62.08284 7145 ft 280 kts 229°
2026-05-05 13:36 57.39669 62.05645 6730 ft 267 kts 229°
2026-05-05 13:36 57.38437 62.03034 6854 ft 278 kts 229°
2026-05-05 13:36 57.37171 62.00354 6812 ft 270 kts 229°
2026-05-05 13:37 57.35921 61.97712 6825 ft 272 kts 229°
2026-05-05 13:37 57.34659 61.95047 6822 ft 271 kts 229°
2026-05-05 13:37 57.32995 61.91563 6837 ft 272 kts 227°
2026-05-05 13:37 57.32118 61.89856 6839 ft 273 kts 226°
2026-05-05 13:38 57.30793 61.87349 6822 ft 271 kts 225°
2026-05-05 13:38 57.29463 61.84834 6822 ft 272 kts 226°
2026-05-05 13:38 57.28145 61.82327 6824 ft 271 kts 225°
2026-05-05 13:38 57.26820 61.79801 6823 ft 272 kts 226°
2026-05-05 13:39 57.25502 61.77280 6820 ft 271 kts 226°
2026-05-05 13:39 57.24186 61.74765 6826 ft 272 kts 226°
2026-05-05 13:39 57.22870 61.72250 6824 ft 271 kts 226°
2026-05-05 13:39 57.21111 61.68895 6824 ft 272 kts 226°
2026-05-05 13:40 57.20238 61.67232 6825 ft 272 kts 226°
2026-05-05 13:40 57.18919 61.64720 6823 ft 271 kts 226°
2026-05-05 13:40 57.17609 61.62229 6827 ft 272 kts 226°
2026-05-05 13:40 57.16293 61.59729 6828 ft 271 kts 226°
2026-05-05 13:41 57.14966 61.57211 6830 ft 272 kts 226°
2026-05-05 13:41 57.13657 61.54729 6825 ft 271 kts 226°
2026-05-05 13:41 57.12322 61.52200 6824 ft 272 kts 226°
2026-05-05 13:41 57.10992 61.49686 6826 ft 272 kts 226°
2026-05-05 13:42 57.09687 61.47220 6822 ft 272 kts 226°
2026-05-05 13:42 57.08349 61.44696 6823 ft 271 kts 226°
2026-05-05 13:42 57.07040 61.42229 6824 ft 272 kts 227°
2026-05-05 13:42 57.05888 61.39448 6852 ft 273 kts 233°
2026-05-05 13:43 57.04572 61.36908 6846 ft 272 kts 224°
2026-05-05 13:43 57.03234 61.34479 6814 ft 270 kts 225°
2026-05-05 13:43 57.01920 61.32001 6824 ft 272 kts 225°
2026-05-05 13:43 57.00611 61.29474 6828 ft 271 kts 227°
2026-05-05 13:44 56.99307 61.26941 6829 ft 272 kts 226°
2026-05-05 13:44 56.97992 61.24403 6810 ft 271 kts 226°
2026-05-05 13:44 56.96684 61.21883 6554 ft 273 kts 226°
2026-05-05 13:44 56.95381 61.19374 6168 ft 271 kts 226°
2026-05-05 13:45 56.94050 61.16881 5763 ft 269 kts 220°
2026-05-05 13:45 56.92461 61.15177 5499 ft 264 kts 198°
2026-05-05 13:45 56.90648 61.14589 5239 ft 267 kts 185°
2026-05-05 13:45 56.88825 61.14141 4850 ft 267 kts 189°
2026-05-05 13:46 56.87300 61.13644 4449 ft 265 kts 191°
2026-05-05 13:46 56.85297 61.12903 3867 ft 257 kts 192°
2026-05-05 13:46 56.83576 61.12257 3352 ft 252 kts 188°
2026-05-05 13:46 56.81870 61.11812 2954 ft 242 kts 188°
2026-05-05 13:47 56.80250 61.11398 2668 ft 229 kts 188°
2026-05-05 13:47 56.78693 61.11002 2784 ft 233 kts 187°
2026-05-05 13:47 56.77119 61.10529 2815 ft 220 kts 192°
2026-05-05 13:47 56.75626 61.09596 2813 ft 234 kts 206°
2026-05-05 13:48 56.74391 61.07847 2789 ft 221 kts 229°
2026-05-05 13:48 56.73590 61.05420 2810 ft 225 kts 249°
2026-05-05 13:48 56.73321 61.02605 2788 ft 228 kts 268°
2026-05-05 13:48 56.73360 60.99779 2636 ft 217 kts 274°
2026-05-05 13:49 56.73477 60.97256 2340 ft 185 kts 275°
2026-05-05 13:49 56.73588 60.95101 2046 ft 161 kts 275°
2026-05-05 13:49 56.73668 60.93203 1751 ft 144 kts 275°
2026-05-05 13:49 56.73725 60.91380 1540 ft 145 kts 273°
2026-05-05 13:50 56.73782 60.89542 1384 ft 145 kts 274°
2026-05-05 13:50 56.73863 60.87112 1205 ft 145 kts 275°
2026-05-05 13:50 56.73914 60.85892 1105 ft 146 kts 275°
2026-05-05 13:50 56.73984 60.84041 899 ft 141 kts 275°
2026-05-05 13:51 56.74060 60.82264 797 ft 143 kts 275°
2026-05-05 13:51 56.74130 60.80570 781 ft 119 kts 274°
2026-05-05 13:51 56.74169 60.79521 781 ft 42 kts 274°
2026-05-05 13:51 56.74182 60.79174 780 ft 9 kts 275°
2026-05-05 13:52 56.74223 60.79103 780 ft 8 kts 349°
2026-05-05 13:52 56.74292 60.79113 780 ft 10 kts 10°
2026-05-05 13:52 56.74328 60.79124 780 ft 0 kts 10°
2026-05-05 13:54 56.74332 60.79126 780 ft 1 kts 10°
2026-05-05 13:54 56.74347 60.79130 780 ft 3 kts 10°
2026-05-05 13:55 56.74373 60.79139 780 ft 4 kts 10°
2026-05-05 13:55 56.74410 60.79150 780 ft 6 kts 10°
2026-05-05 13:55 56.74457 60.79165 780 ft 7 kts 10°
2026-05-05 13:55 56.74514 60.79182 780 ft 9 kts
2026-05-05 13:56 56.74583 60.79187 780 ft 10 kts
2026-05-05 13:56 56.74653 60.79187 780 ft 8 kts
2026-05-05 13:56 56.74704 60.79190 780 ft 7 kts 15°
2026-05-05 13:56 56.74732 60.79264 780 ft 7 kts 82°
2026-05-05 13:57 56.74736 60.79348 780 ft 5 kts 77°
2026-05-05 13:57 56.74755 60.79385 780 ft 3 kts 22°
2026-05-05 13:57 56.74779 60.79393 780 ft 3 kts
2026-05-05 13:57 56.74786 60.79393 780 ft 0 kts